Погода в Белозерске

Поиск расширенной информации на нашем сайте:

Полезная информация:

Новости сайта



02.01.2020
Опубликован Долгосрочный прогноз погоды по городам России и ближнего зарубежья на январь 2020 года.
Карты: Прогноз на январь и февраль 2020 года, Сравнение прогнозируемой аномалии приземной температуры воздуха на январь 2020 года по разным моделям.




Погода в Белозерске - сегодня

Время (UTC), дата Ветер
(°,м/с) 
Видим.   Явления Облачность Т
(°С)
Тd
(°С)
f(%) Тe
(°С)
Pmin
(гПа)
dP
(гПа)
Po
(мм)
O2
(г/м3)
Тmin Tmax R s Состояние
почвы
18 29.11.20 140 (ЮВ) 10 км    10/10 240 м 
[St]
-2.9 -3.3 97 -5  1034.6  -0.8  763  311           
21 29.11.20 120 (ЮВ) 10 км    9/9 270 м 
[St]
-2.3 -2.6 98 -3  1034  -0.5  763  310           
00 30.11.20 130 (ЮВ) 4000 м  слаб. снег  10/10 330 м 
[Frnb|Ns]
-1.4 -1.9 96 -3  1033  -1  762  309           
03 30.11.20 130 (ЮВ) 4000 м  слаб. снег  10/10 300 м 
[Frnb|Ns]
-0.9 -1.6 95 -3  1031.9  -1  761  308  -3.5    0.5  13  равномерный
сухой снег
100% 
06 30.11.20 140 (ЮВ) 10 км  {снег}  10/10 270 м 
[Frnb|Ns]
+0.2 -0.1 98 -2  1031.2  -0.6  761  306           
09 30.11.20 140 (ЮВ) 10 км    10/10 500 м кучево-дожд. 
[Cb calv]
+0.8 -0.3 92 -1  1030  -1.2  760  305           
12 30.11.20 140 (ЮВ) 4000 м  слаб. ливневой снег  10/10 500 м кучево-дожд. 
[Cb calv]
+0.5 +0.2 98 -2  1028.4  -1.5  759  305           
15 30.11.20 160 (Ю) 5{11}  10 км  в посл. час ливневой снег  10/10 480 м кучево-дожд. 
[Cb calv]
+0.5 -0.1 96 -2  1027.3  -1.1  758  305    +0.8  0.5     
18 30.11.20 160 (Ю) 5-10{10}  4000 м  слаб. ливневой снег  9/9 500 м кучево-дожд. 
[Cb calv]
-0.1 -0.7 96 -3  1026.5  -0.9  757  305           
21 30.11.20 170 (Ю) 5{10}  4000 м  слаб. ливневой снег  10/10 450 м кучево-дожд. 
[Cb calv]
+0 -0.8 94 -3  1026.3  -0.2  757  305           
00 01.12.20 160 (Ю) 4000 м  слаб. снег{ливн. осадки}  10/10 330 м 
[Frnb|Ns]
-0.1 -0.7 96 -3  1026.1  -0.1  757  305           
03 01.12.20 160 (Ю) 4000 м  слаб. снег  10/8 420 м средняя 
[Frnb|As op]
-0.2 -0.8 96 -3  1025.9  -0.3  757  305  -0.2    12  равномерный
сухой снег
100% 
06 01.12.20 170 (Ю) 4000 м  слаб. снег  10/6 420 м средняя 
[Frnb|As op]
-1.2 -2.5 91 -3  1026.6  0.6  757  307  -1.2         
09 01.12.20 170 (Ю) 10 км  {снег}  10/0 2000 м средняя 
[As op]
-1.1 -1.8 95 -4  1027.6  758  307           
12 01.12.20 190 (Ю) 10 км  {снег}  10/10 630 м 
[Sc]
-0.9 -1.9 93 -4  1028.4  0.8  759  307           
15 01.12.20 180 (Ю) 10 км    10/10 660 м 
[Sc]
-1.4 -2.4 93 -2  1029.8  1.4  760  308    -0.2     
21 01.12.20 190 (Ю) 10 км  {снег}  10/10 660 м 
[Sc]
-1.2 -2.2 93 -4  1031.4  0.7  761  308           
00 02.12.20 220 (ЮЗ) 10 км  {снег}  10/5 1000 м средняя 
[Sc|As op]
-1.3 -2.3 93 -4  1032.3  0.8  762  309           
03 02.12.20 200 (Ю) 10 км    10/6 660 м средняя 
[Sc|As op]
-1.6 -2.7 92 -4  1032.7  0.4  762  309  -1.6    0.0  13  равномерный
сухой снег
100% 
06 02.12.20 200 (Ю) 10 км    10/10 600 м 
[Sc]
-1.8 -3.2 90 -3  1033.3  0.6  762  310  -1.8         
09 02.12.20 210 (ЮЗ) 10 км    10/10 600 м 
[Sc]
-1.2 -1.9 95 -3  1034.5  1.2  763  309           
12 02.12.20 190 (Ю) 10 км    9/9 660 м 
[Sc]
-1.6 -2.3 95 -4  1034.7  0.2  763  310           
15 02.12.20 170 (Ю) 10 км    10/10 630 м 
[Sc]
-1.6 -1.9 98 -4  1034.8  0.1  764  310    -1.1       
18 02.12.20 170 (Ю) 4000 м  слаб. снег  10/10 660 м 
[Sc]
-1.9 -2.7 94 -4  1035.2  0.3  764  310           
21 02.12.20 170 (Ю) 10 км  {снег}  10/10 600 м 
[Sc]
-2.3 -3.2 94 -4  1035.2  764  311           
Время (UTC), дата Ветер
(°,м/с) 
Видим.   Явления Облачность Т
(°С)
Тd
(°С)
f(%) Тe
(°С)
Pmin
(гПа)
dP
(гПа)
Po
(мм)
O2
(г/м3)
Тmin Tmax R s Состояние
почвы

Для получения пояснительной информации подведите курсор к названию столбца.

ПОГОДА в Белозерске - архив

Всё, что Вы хотите узнать о погоде в Белозерске - удобно и подробно!

Выберите нужную дату (начиная с 1 января 2019* года) и нажмите кнопку "Найти".
Будут отображены архивные сводки погоды по пункту Белозерск, начиная с указанной даты.


Отображать данные в формате CSV (для использования в таблицах Excel)


Внимание! Наш архив погоды предназначен исключительно для личного некоммерческого использования в познавательных целях. Если Вам необходимы официальные справки о состоянии погоды (для производственных, юридических, коммерческих и т.п. целей), обращайтесь в органы Росгидромета.

*Примечание: данная дата относится к архиву по метеостанциям СССР (Россия, СНГ, Балтия).
Архив по метеостанциям Зарубежной Европы и Азии (кроме Китая) хранится 10 дней, по другим регионам земного шара (Китай, Африка, Америка, Австралия, Океания) - 1 день.

Белозерск - район местоположения метеостанции


Название, широта, долгота, высота метеостанции:
Белозерск 60°ш. 37.8°д. 131 м над ур. моря [Российская Федерация]

Дополнительная информация

В oтличие oт бoльшинства пoгoдных сайтoв мы публикуем пoдрoбную метеoинфoрмацию в детальнoм прoфессиoнальнoм фoрмате.

Характеристики температуры и влажнoсти вoздуха измеряются на высoте 2 м в тени вдали oт зданий и деревьев.
Скoрoсть ветра измеряется на высoте 10 м (на урoвне рoста челoвека скoрoсть ветра ниже в 1.5-2 раза). Если метеoстанция нахoдится в гoрoде или в лесу, тo скoрoсть ветра занижена на 2-4 м/с пo сравнению с oткрытым местoм. Скoрoсть ветра над акватoриями крупных рек и oзёр, а также на вершинах хoлмoв на 2-5 м/с выше, чем в oбычных услoвиях.
Атмoсфернoе давление в разных тoчках местнoсти мoжет значительнo oтличаться oт давления на метеoстанции, в зависимoсти oт услoвий рельефа (при пoдъёме на 10 м давление пoнижается примернo на 1 мм рт.ст.).